Weather History for South Haven, MI

Change the Weather History Date:

Tuesday, May 28, 2013

  Actual Average (KBIV) Record (KBIV)
Temperature  
Mean Temperature 64 °F 63 °F  
Max Temperature 75 °F 73 °F 93 °F (2012)
Min Temperature 54 °F 53 °F 33 °F (1971)
Degree Days  
Heating Degree Days 0 5  
Month to date heating degree days 220  
Since 1 July heating degree days 6099  
Cooling Degree Days 0 2  
Month to date cooling degree days 30  
Year to date cooling degree days 34  
Growing Degree Days 14 (Base 50)    
Moisture  
Dew Point 62 °F    
Average Humidity 87    
Maximum Humidity 97    
Minimum Humidity 69    
Precipitation  
Precipitation 0.00 in 0.09 in 1.50 in (2000)
Month to date precipitation 2.94  
Year to date precipitation 12.35  
Sea Level Pressure  
Sea Level Pressure 29.83 in    
Wind  
Wind Speed 6 mph (South)    
Max Wind Speed 17 mph    
Max Gust Speed 32 mph    
Visibility 8 miles    
Events Rain    
T = Trace of Precipitation, MM = Missing Value Source: NWS Daily Summary

Daily Weather History Graph

Daily Weather History Graph

Search for Another Location

Airport:

Trip Planner

Search our weather history database for the weather conditions in past years. The results will help you decide how hot, cold, wet, or windy it might be!

Date:

Astronomy

May. 28, 2013 Rise Set
Actual Time 6:12 AM EDT 9:12 PM EDT
Civil Twilight 5:39 AM EDT 9:45 PM EDT
Nautical Twilight 4:56 AM EDT 10:28 PM EDT
Astronomical Twilight 4:06 AM EDT 11:19 PM EDT
Moon No Moon Rise 10:02 AM EDT (5/28)
Length of Visible Light 16h 06m
Length of Day
14h 59m
Waning Gibbous, 83% of the Moon is Illuminated
May 28
Waning Gibbous
May 31
Last Quarter
Jun 8
New
Jun 16
First Quarter
Jun 23
Full

Hourly Weather History & Observations

Time (EDT) Temp. Dew Point Humidity Pressure Visibility Wind Dir Wind Speed Gust Speed Precip Events Conditions
12:15 AM 54.5 °F 52.5 °F 93% 29.92 in 7.0 mi ESE 8.1 mph - N/A   Overcast
12:35 AM 54.7 °F 52.7 °F 93% 29.92 in 10.0 mi ESE 5.8 mph - N/A   Overcast
12:55 AM 54.9 °F 52.7 °F 92% 29.92 in 7.0 mi ESE 4.6 mph - N/A   Overcast
1:15 AM 54.9 °F 52.7 °F 92% 29.91 in 7.0 mi East 5.8 mph - N/A   Overcast
1:35 AM 54.9 °F 52.9 °F 93% 29.89 in 7.0 mi ESE 5.8 mph - N/A   Overcast
1:55 AM 55.0 °F 53.1 °F 93% 29.90 in 7.0 mi ESE 4.6 mph - N/A   Overcast
2:15 AM 55.4 °F 53.2 °F 92% 29.90 in 7.0 mi ESE 3.5 mph - N/A   Overcast
2:35 AM 55.4 °F 53.6 °F 94% 29.90 in 7.0 mi ESE 5.8 mph - N/A   Overcast
2:55 AM 55.4 °F 53.6 °F 94% 29.89 in 5.0 mi ESE 4.6 mph - N/A   Overcast
3:15 AM 55.6 °F 54.0 °F 94% 29.89 in 5.0 mi ESE 3.5 mph - N/A   Overcast
3:35 AM 55.9 °F 54.3 °F 94% 29.88 in 5.0 mi ESE 4.6 mph - N/A   Overcast
3:55 AM 56.1 °F 54.7 °F 95% 29.87 in 4.0 mi Calm Calm - N/A Rain Rain
4:15 AM 56.3 °F 54.9 °F 95% 29.87 in 4.0 mi ESE 3.5 mph - N/A Rain Light Rain
4:35 AM 56.3 °F 55.4 °F 97% 29.86 in 3.0 mi Calm Calm - N/A Rain Rain
4:55 AM 56.5 °F 55.6 °F 97% 29.85 in 3.0 mi Calm Calm - N/A Rain Light Rain
5:15 AM 56.8 °F 55.9 °F 97% 29.85 in 2.5 mi ESE 3.5 mph - N/A Rain Light Rain
5:36 AM 57.2 °F 56.5 °F 97% 29.88 in 2.5 mi Calm Calm - N/A Rain Light Rain
5:55 AM 57.6 °F 56.8 °F 97% 29.87 in 2.5 mi Calm Calm - N/A Rain Heavy Rain
6:15 AM 58.5 °F 57.7 °F 97% 29.85 in 3.0 mi ESE 8.1 mph - N/A Rain Light Rain
6:36 AM 59.2 °F 58.5 °F 97% 29.84 in 4.0 mi ESE 3.5 mph - N/A   Overcast
6:55 AM 59.9 °F 59.0 °F 97% 29.85 in 4.0 mi Calm Calm - N/A   Overcast
7:15 AM 60.3 °F 59.2 °F 96% 29.85 in 4.0 mi SE 3.5 mph - N/A   Overcast
7:35 AM 60.8 °F 59.7 °F 96% 29.85 in 7.0 mi SE 5.8 mph - N/A   Overcast
7:55 AM 61.3 °F 59.9 °F 95% 29.85 in 7.0 mi SE 4.6 mph - N/A   Overcast
8:15 AM 61.9 °F 60.3 °F 94% 29.85 in 10.0 mi SSE 4.6 mph - N/A   Overcast
8:35 AM 62.8 °F 61.2 °F 94% 29.84 in 7.0 mi SSE 4.6 mph - N/A Rain Light Rain
8:55 AM 63.5 °F 61.9 °F 94% 29.83 in 10.0 mi SSE 5.8 mph - N/A   Overcast
9:15 AM 65.1 °F 63.0 °F 93% 29.83 in 10.0 mi SSE 4.6 mph - N/A   Overcast
9:35 AM 66.9 °F 63.7 °F 89% 29.82 in 10.0 mi South 6.9 mph - N/A   Overcast
9:55 AM 68.5 °F 64.4 °F 87% 29.82 in 10.0 mi South 9.2 mph - N/A   Mostly Cloudy
10:15 AM 68.7 °F 63.9 °F 84% 29.82 in 10.0 mi South 8.1 mph - N/A   Scattered Clouds
10:35 AM 69.3 °F 63.9 °F 83% 29.82 in 10.0 mi South 8.1 mph - N/A   Mostly Cloudy
10:55 AM 69.3 °F 64.0 °F 83% 29.81 in 10.0 mi South 9.2 mph - N/A Rain Rain
11:16 AM 69.3 °F 64.4 °F 84% 29.81 in 4.0 mi SSW 13.8 mph 19.6 mph N/A Rain Heavy Rain
11:35 AM 69.4 °F 65.3 °F 87% 29.79 in 10.0 mi South 8.1 mph - N/A   Mostly Cloudy
11:55 AM 70.5 °F 66.2 °F 86% 29.81 in 10.0 mi SSW 9.2 mph - N/A Rain Light Rain
12:16 PM 71.8 °F 65.1 °F 79% 29.81 in 10.0 mi SW 9.2 mph 18.4 mph N/A   Mostly Cloudy
12:35 PM 73.8 °F 66.0 °F 77% 29.81 in 10.0 mi SSW 9.2 mph 17.3 mph N/A   Scattered Clouds
12:55 PM 74.7 °F 65.5 °F 73% 29.82 in 10.0 mi SW 9.2 mph 16.1 mph N/A   Scattered Clouds
1:16 PM 74.3 °F 64.4 °F 71% 29.83 in 10.0 mi WSW 9.2 mph 17.3 mph N/A   Mostly Cloudy
1:35 PM 72.7 °F 63.0 °F 71% 29.84 in 10.0 mi SW 13.8 mph 24.2 mph N/A   Overcast
1:55 PM 72.5 °F 63.3 °F 73% 29.83 in 10.0 mi SW 11.5 mph 21.9 mph N/A   Overcast
2:16 PM 73.2 °F 64.2 °F 73% 29.82 in 10.0 mi SW 11.5 mph 17.3 mph N/A   Overcast
2:35 PM 75.0 °F 64.4 °F 69% 29.81 in 10.0 mi SW 17.3 mph 27.6 mph N/A   Overcast
2:55 PM 75.4 °F 64.6 °F 69% 29.81 in 10.0 mi SW 12.7 mph 23.0 mph N/A   Mostly Cloudy
3:15 PM 75.4 °F 64.9 °F 70% 29.81 in 10.0 mi SSW 12.7 mph 19.6 mph N/A   Mostly Cloudy
3:35 PM 72.0 °F 66.0 °F 81% 29.82 in 7.0 mi SW 5.8 mph 18.4 mph N/A Rain Rain
3:55 PM 70.7 °F 67.1 °F 88% 29.82 in 7.0 mi SSW 3.5 mph - N/A   Overcast
4:15 PM 69.6 °F 67.1 °F 92% 29.82 in 3.0 mi Calm Calm - N/A Rain Heavy Rain
4:35 PM 69.6 °F 67.6 °F 93% 29.81 in 5.0 mi Calm Calm - N/A Rain Light Rain
4:56 PM 70.3 °F 67.8 °F 92% 29.80 in 7.0 mi Calm Calm - N/A   Overcast
5:15 PM 70.7 °F 68.4 °F 92% 29.80 in 7.0 mi Calm Calm - N/A   Overcast
5:35 PM 71.8 °F 69.1 °F 91% 29.79 in 7.0 mi South 3.5 mph - N/A   Overcast
5:55 PM 72.5 °F 69.3 °F 90% 29.79 in 7.0 mi SSW 5.8 mph - N/A   Overcast
6:15 PM 73.6 °F 69.8 °F 88% 29.78 in 10.0 mi SW 5.8 mph - N/A   Overcast
6:35 PM 73.8 °F 68.9 °F 85% 29.79 in 10.0 mi WSW 8.1 mph - N/A   Overcast
6:55 PM 72.9 °F 66.6 °F 81% 29.79 in 10.0 mi SW 11.5 mph 16.1 mph N/A   Overcast
7:15 PM 73.6 °F 65.3 °F 75% 29.79 in 10.0 mi SW 9.2 mph 20.7 mph N/A   Overcast
7:35 PM 73.8 °F 64.9 °F 74% 29.79 in 10.0 mi SW 12.7 mph 18.4 mph N/A   Overcast
7:55 PM 73.8 °F 65.3 °F 75% 29.79 in 10.0 mi SW 13.8 mph 24.2 mph N/A   Overcast
8:15 PM 74.3 °F 65.5 °F 74% 29.78 in 10.0 mi SW 13.8 mph 23.0 mph N/A   Overcast
8:35 PM 74.3 °F 65.5 °F 74% 29.78 in 10.0 mi SW 15.0 mph 20.7 mph N/A   Overcast
8:55 PM 74.3 °F 65.5 °F 74% 29.78 in 10.0 mi SW 10.4 mph 20.7 mph N/A   Overcast
9:15 PM 74.1 °F 65.7 °F 75% 29.78 in 10.0 mi SW 10.4 mph 17.3 mph N/A   Overcast
9:35 PM 73.9 °F 66.2 °F 77% 29.78 in 10.0 mi SW 10.4 mph - N/A   Overcast
9:55 PM 73.9 °F 66.6 °F 78% 29.78 in 10.0 mi SW 9.2 mph - N/A Rain Light Rain
10:16 PM 71.8 °F 68.0 °F 88% 29.78 in 3.0 mi SSW 6.9 mph - N/A Rain Heavy Rain
10:35 PM 71.2 °F 68.4 °F 91% 29.78 in 7.0 mi SSW 9.2 mph 16.1 mph N/A Rain Rain
10:55 PM 71.2 °F 68.5 °F 91% 29.78 in 5.0 mi WSW 16.1 mph 21.9 mph N/A Rain Rain
11:16 PM 66.6 °F 63.0 °F 88% 29.83 in 4.0 mi SW 17.3 mph 32.2 mph N/A Rain Rain
11:35 PM 65.7 °F 61.3 °F 86% 29.83 in 10.0 mi SSW 16.1 mph 25.3 mph N/A Rain Light Rain
11:55 PM 64.9 °F 61.5 °F 89% 29.83 in 10.0 mi SSW 12.7 mph 20.7 mph N/A Rain Rain